Date,Time,Wetness (Wet Dry or Ice),Wind Speed (m/s),Temperature (C),Humidity (%),Pressure (mb),Radiation (W/m^2)
2020-05-31,05:05:00,DRY,1.10,8.70,43.5,769.00,1.0
2020-05-31,05:10:00,DRY,1.60,8.37,27.3,769.33,1.6
2020-05-31,05:15:00,DRY,2.50,9.15,22.0,770.00,1.7
2020-05-31,05:20:00,DRY,1.20,9.03,23.3,770.00,1.2
2020-05-31,05:25:00,DRY,1.45,8.35,31.0,769.00,1.8
2020-05-31,05:30:00,DRY,1.47,8.63,39.7,770.00,0.8
2020-05-31,05:35:00,DRY,2.10,5.55,84.0,770.00,1.0
2020-05-31,05:40:00,DRY,1.60,4.43,97.3,770.00,1.0
2020-05-31,05:45:00,DRY,1.40,4.60,99.5,770.00,2.8
2020-05-31,05:50:00,DRY,1.73,4.53,97.3,770.00,2.1
2020-05-31,05:55:00,DRY,1.95,4.50,82.0,770.00,5.2
2020-05-31,06:00:00,DRY,0.87,4.53,93.0,770.00,2.6
2020-05-31,06:05:00,DRY,1.45,6.00,69.0,770.00,3.2
2020-05-31,06:10:00,DRY,2.03,4.67,95.7,770.00,7.8
2020-05-31,06:15:00,DRY,2.70,4.40,99.0,770.00,14.0
2020-05-31,06:20:00,DRY,2.87,4.80,100.0,770.00,57.0
2020-05-31,06:25:00,DRY,3.75,5.15,100.0,770.00,116.8
2020-05-31,06:30:00,DRY,2.13,5.20,100.0,770.00,149.2
2020-05-31,06:35:00,DRY,1.40,5.05,100.0,770.00,204.5
2020-05-31,06:40:00,DRY,2.77,5.23,100.0,770.00,213.6
2020-05-31,06:45:00,DRY,3.20,5.50,100.0,770.00,212.6
2020-05-31,06:50:00,DRY,2.43,5.47,100.0,770.00,239.3
2020-05-31,06:55:00,DRY,1.95,5.75,100.0,770.00,229.1
2020-05-31,07:00:00,DRY,2.23,5.80,100.0,770.00,214.3
2020-05-31,07:05:00,DRY,2.50,5.55,100.0,770.00,189.9
2020-05-31,07:10:00,DRY,2.07,5.57,100.0,770.00,207.0
2020-05-31,07:15:00,DRY,1.60,5.60,100.0,770.00,250.7
2020-05-31,07:20:00,DRY,2.40,5.50,100.0,770.00,249.0
2020-05-31,07:25:00,DRY,2.45,5.45,100.0,770.00,259.2
2020-05-31,07:30:00,DRY,1.80,5.67,100.0,770.00,356.2
2020-05-31,07:35:00,DRY,1.55,5.50,100.0,770.00,335.4
2020-05-31,07:40:00,DRY,1.83,5.37,100.0,770.00,279.1
2020-05-31,07:45:00,DRY,1.05,5.60,100.0,770.00,332.2
2020-05-31,07:50:00,DRY,1.43,5.57,100.0,770.00,313.0
2020-05-31,07:55:00,DRY,1.30,5.65,100.0,770.00,325.2
2020-05-31,08:00:00,DRY,2.27,5.63,99.7,770.00,360.8
2020-05-31,08:05:00,DRY,1.55,5.40,91.5,770.00,549.2
2020-05-31,08:10:00,DRY,1.90,5.90,94.7,770.00,474.2
2020-05-31,08:15:00,DRY,0.85,5.70,96.0,770.00,415.6
2020-05-31,08:20:00,DRY,0.97,5.73,87.7,770.00,538.2
2020-05-31,08:25:00,DRY,1.95,6.25,92.5,770.00,431.1
2020-05-31,08:30:00,DRY,2.00,5.73,84.7,770.00,659.7
2020-05-31,08:35:00,DRY,1.90,6.35,88.0,770.00,668.9
2020-05-31,08:40:00,DRY,2.53,6.70,70.7,770.00,679.8
2020-05-31,08:45:00,DRY,1.40,7.85,61.0,770.00,687.8
2020-05-31,08:50:00,DRY,2.57,8.67,39.3,770.00,703.1
2020-05-31,08:55:00,DRY,2.30,9.75,30.5,770.00,695.0
2020-05-31,09:00:00,DRY,2.47,11.27,24.7,770.00,720.2
2020-05-31,09:05:00,DRY,1.90,12.65,20.0,770.00,742.2
2020-05-31,09:10:00,DRY,2.27,12.97,19.3,770.00,764.1
2020-05-31,09:15:00,DRY,1.95,12.85,34.0,770.00,785.1
2020-05-31,09:20:00,DRY,3.20,12.80,21.7,770.00,804.6
2020-05-31,09:25:00,DRY,2.00,11.30,56.0,770.00,730.0
2020-05-31,09:30:00,DRY,1.40,9.67,55.0,770.00,822.3
2020-05-31,09:35:00,DRY,1.65,12.55,18.0,770.00,858.8
2020-05-31,09:40:00,DRY,1.40,12.33,35.7,770.00,875.5
2020-05-31,09:45:00,DRY,3.00,13.60,13.0,770.00,890.5
2020-05-31,09:50:00,DRY,3.00,13.67,16.0,770.00,905.1
2020-05-31,09:55:00,DRY,2.50,13.95,15.5,770.00,915.8
2020-05-31,10:00:00,DRY,3.37,13.47,24.3,770.00,923.7
2020-05-31,10:05:00,DRY,3.10,14.05,19.5,770.00,934.2
2020-05-31,10:10:00,DRY,2.37,14.33,18.7,770.00,950.3
2020-05-31,10:15:00,DRY,3.20,14.55,11.5,770.00,967.0
2020-05-31,10:20:00,DRY,1.13,14.67,15.0,770.00,982.1
2020-05-31,10:25:00,DRY,1.65,14.75,14.5,770.00,997.5
2020-05-31,10:30:00,DRY,2.53,14.67,18.7,770.33,1010.1
2020-05-31,10:35:00,DRY,2.15,14.70,23.0,770.50,1024.0
2020-05-31,10:40:00,DRY,3.17,14.47,25.3,770.33,1038.4
2020-05-31,10:45:00,DRY,3.10,14.80,15.0,770.00,1050.5
2020-05-31,10:50:00,DRY,2.93,14.83,19.0,770.33,1063.7
2020-05-31,10:55:00,DRY,3.55,15.25,14.0,771.00,1074.8
2020-05-31,11:00:00,DRY,2.90,14.97,19.7,770.33,1086.1
2020-05-31,11:05:00,DRY,2.55,15.50,20.5,771.00,1097.6
2020-05-31,11:10:00,DRY,2.67,15.30,18.3,771.00,1107.8
2020-05-31,11:15:00,DRY,3.05,15.05,32.0,771.00,1117.3
2020-05-31,11:20:00,DRY,2.80,15.37,20.0,771.00,1127.3
2020-05-31,11:25:00,DRY,4.10,15.25,10.5,771.00,1136.8
2020-05-31,11:30:00,DRY,3.47,14.90,26.0,771.00,1145.0
2020-05-31,11:35:00,DRY,4.35,14.85,19.5,771.00,1153.2
2020-05-31,11:40:00,DRY,1.30,15.07,28.7,771.00,1159.9
2020-05-31,11:45:00,DRY,3.80,14.85,24.5,771.00,1167.5
2020-05-31,11:50:00,DRY,3.03,14.73,24.0,771.00,1175.9
2020-05-31,11:55:00,DRY,3.05,15.35,23.5,771.00,1181.1
2020-05-31,12:00:00,DRY,1.67,15.67,19.3,771.00,1187.9
2020-05-31,12:05:00,DRY,2.85,14.85,27.5,771.00,1192.5
2020-05-31,12:10:00,DRY,1.93,15.27,23.7,771.00,1197.5
2020-05-31,12:15:00,DRY,4.45,14.85,22.5,771.00,1203.2
2020-05-31,12:20:00,DRY,2.50,15.30,27.3,771.00,1203.4
2020-05-31,12:25:00,DRY,5.15,14.65,25.0,771.00,1206.8
2020-05-31,12:30:00,DRY,3.87,14.73,22.7,771.00,1210.1
2020-05-31,12:35:00,DRY,4.15,14.50,24.0,771.00,1212.3
2020-05-31,12:40:00,DRY,2.80,14.70,21.7,771.00,1215.5
2020-05-31,12:45:00,DRY,3.10,14.25,19.5,771.00,1218.9
2020-05-31,12:50:00,DRY,2.27,14.27,27.0,771.00,1220.0
2020-05-31,12:55:00,DRY,3.60,14.50,17.0,771.00,1219.3
2020-05-31,13:00:00,DRY,4.17,14.73,16.0,771.00,1221.6
2020-05-31,13:05:00,DRY,2.20,14.50,20.5,771.00,1220.7
2020-05-31,13:10:00,DRY,2.63,14.97,28.3,771.00,1222.6
2020-05-31,13:15:00,DRY,2.40,14.85,21.0,771.00,1224.2
2020-05-31,13:20:00,DRY,2.03,14.77,34.7,771.00,1218.9
2020-05-31,13:25:00,DRY,1.85,14.30,43.0,771.00,1221.4
2020-05-31,13:30:00,DRY,4.40,13.60,34.0,771.00,1219.0
2020-05-31,13:35:00,DRY,1.00,13.80,36.0,771.00,1213.7
2020-05-31,13:40:00,DRY,2.53,14.43,30.0,771.00,1217.9
2020-05-31,13:45:00,DRY,2.75,14.90,34.0,771.00,1214.2
2020-05-31,13:50:00,DRY,1.37,13.97,58.7,771.00,1217.3
2020-05-31,13:55:00,DRY,1.80,13.75,63.5,771.00,1211.0
2020-05-31,14:00:00,DRY,1.97,14.03,54.7,771.00,1207.6
2020-05-31,14:05:00,DRY,2.80,14.00,57.0,771.00,1199.0
2020-05-31,14:10:00,DRY,2.10,14.10,58.0,771.00,1196.4
2020-05-31,14:15:00,DRY,1.95,14.60,58.5,771.00,1189.9
2020-05-31,14:20:00,DRY,3.40,14.83,33.7,771.00,1182.3
2020-05-31,14:25:00,DRY,2.30,14.60,56.5,771.00,1175.4
2020-05-31,14:30:00,DRY,2.37,13.10,63.7,771.00,1167.8
2020-05-31,14:35:00,DRY,1.95,13.45,54.0,771.00,1164.0
2020-05-31,14:40:00,DRY,2.57,13.83,47.7,771.00,1154.2
2020-05-31,14:45:00,DRY,1.60,14.20,53.5,771.00,1146.7
2020-05-31,14:50:00,DRY,2.90,13.87,39.3,771.00,1135.5
2020-05-31,14:55:00,DRY,2.80,14.20,28.5,771.00,1126.0
2020-05-31,15:00:00,DRY,4.00,14.60,27.7,771.00,1115.3
2020-05-31,15:05:00,DRY,2.85,15.40,26.0,771.00,1105.7
2020-05-31,15:10:00,DRY,3.63,15.03,27.7,771.00,1094.6
2020-05-31,15:15:00,DRY,3.30,14.75,27.5,771.00,1082.1
2020-05-31,15:20:00,DRY,4.43,15.70,20.3,770.67,1069.8
2020-05-31,15:25:00,DRY,3.40,15.60,20.0,771.00,1058.2
2020-05-31,15:30:00,DRY,4.33,15.50,21.7,771.00,1046.4
2020-05-31,15:35:00,DRY,3.25,15.85,10.5,771.00,1032.2
2020-05-31,15:40:00,DRY,3.93,15.87,12.7,771.00,1019.4
2020-05-31,15:45:00,DRY,3.65,16.30,13.0,771.00,1005.8
2020-05-31,15:50:00,DRY,2.30,16.30,18.7,771.00,990.7
2020-05-31,15:55:00,DRY,2.25,15.60,23.0,771.00,976.5
2020-05-31,16:00:00,DRY,2.40,15.43,21.0,771.00,960.0
2020-05-31,16:05:00,DRY,2.35,15.00,17.0,771.00,945.7
2020-05-31,16:10:00,DRY,3.20,15.50,23.5,771.00,932.2
2020-05-31,16:15:00,DRY,1.35,16.20,25.5,771.00,911.2
2020-05-31,16:20:00,DRY,1.40,15.40,24.3,771.00,894.4
2020-05-31,16:25:00,DRY,1.20,14.75,19.5,771.00,877.6
2020-05-31,16:30:00,DRY,2.30,14.93,22.7,771.00,859.6
2020-05-31,16:35:00,DRY,1.55,14.45,16.5,771.00,842.5
2020-05-31,16:40:00,DRY,2.97,15.20,15.3,771.00,824.2
2020-05-31,16:45:00,DRY,2.55,14.65,18.0,771.00,806.3
2020-05-31,16:50:00,DRY,3.23,14.90,15.3,771.00,787.8
2020-05-31,16:55:00,DRY,2.60,14.95,14.5,771.00,770.2
2020-05-31,17:00:00,DRY,2.80,15.00,18.0,771.00,749.8
2020-05-31,17:05:00,DRY,2.60,14.80,17.0,771.00,729.8
2020-05-31,17:10:00,DRY,1.80,14.67,19.3,771.00,711.2
2020-05-31,17:15:00,DRY,2.40,14.55,22.0,771.00,691.6
2020-05-31,17:20:00,DRY,2.77,14.47,21.3,771.00,669.8
2020-05-31,17:25:00,DRY,2.45,14.35,18.0,771.00,649.9
2020-05-31,17:30:00,DRY,2.60,14.07,18.7,771.00,628.6
2020-05-31,17:35:00,DRY,3.40,14.40,17.0,771.00,607.5
2020-05-31,17:40:00,DRY,2.13,14.20,14.7,771.00,586.4
2020-05-31,17:45:00,DRY,2.05,14.00,19.0,771.00,567.0
2020-05-31,17:50:00,DRY,2.37,14.20,20.3,771.00,542.9
2020-05-31,17:55:00,DRY,1.70,14.05,26.0,771.00,521.8
2020-05-31,18:00:00,DRY,2.13,14.33,24.0,771.00,500.0
2020-05-31,18:05:00,DRY,2.40,13.80,22.0,771.00,477.1
2020-05-31,18:10:00,DRY,2.30,13.87,23.0,771.00,454.1
2020-05-31,18:15:00,DRY,2.95,13.50,21.5,771.00,432.7
2020-05-31,18:20:00,DRY,2.20,13.37,22.0,771.00,410.3
2020-05-31,18:25:00,DRY,2.50,13.30,24.0,771.00,388.1
2020-05-31,18:30:00,DRY,3.03,13.37,15.0,771.00,365.2
2020-05-31,18:35:00,DRY,2.55,13.40,14.5,771.00,343.9
2020-05-31,18:40:00,DRY,2.70,13.47,14.0,771.00,320.2
2020-05-31,18:45:00,DRY,3.00,13.45,20.0,771.00,298.0
2020-05-31,18:50:00,DRY,3.70,13.47,16.3,771.00,276.2
2020-05-31,18:55:00,DRY,2.85,13.40,11.5,771.00,253.8
2020-05-31,19:00:00,DRY,2.93,13.33,12.0,771.00,233.6
2020-05-31,19:05:00,DRY,3.65,13.35,13.5,771.00,211.5
2020-05-31,19:10:00,DRY,3.13,13.10,14.7,771.00,191.6
2020-05-31,19:15:00,DRY,3.45,12.95,10.0,771.00,172.1
2020-05-31,19:20:00,DRY,2.80,12.77,10.7,771.00,153.0
2020-05-31,19:25:00,DRY,2.60,12.75,9.0,771.00,132.6
2020-05-31,19:30:00,DRY,3.33,12.57,11.7,771.00,107.7
2020-05-31,19:35:00,DRY,3.50,12.20,12.5,771.00,83.2
2020-05-31,19:40:00,DRY,3.60,12.27,9.7,771.00,62.4
2020-05-31,19:45:00,DRY,3.00,12.25,8.0,771.00,44.8
2020-05-31,19:50:00,DRY,3.13,12.20,8.0,771.00,30.6
2020-05-31,19:55:00,DRY,3.65,12.00,7.5,771.00,19.5
2020-05-31,20:00:00,DRY,3.70,11.83,7.3,771.00,13.5
2020-05-31,20:05:00,DRY,3.60,11.65,6.5,771.00,10.2
2020-05-31,20:10:00,DRY,4.07,11.47,6.0,771.00,6.1
2020-05-31,20:15:00,DRY,3.60,11.50,6.0,771.00,3.4
2020-05-31,20:20:00,DRY,3.37,11.43,6.0,771.00,1.7
2020-05-31,20:25:00,DRY,3.75,11.45,6.0,771.00,1.4
2020-05-31,20:30:00,DRY,3.73,11.70,6.0,771.00,1.2
2020-05-31,20:35:00,DRY,3.55,11.40,6.0,771.00,1.2
2020-05-31,20:40:00,DRY,3.77,11.50,6.0,771.00,1.3
2020-05-31,20:45:00,DRY,3.85,11.45,6.0,771.00,0.9
2020-05-31,20:50:00,DRY,3.93,11.70,5.7,771.00,1.6
2020-05-31,20:55:00,DRY,3.70,11.55,6.0,771.00,1.4
2020-05-31,21:00:00,DRY,3.83,11.33,6.0,771.00,1.3
2020-05-31,21:05:00,DRY,3.55,11.25,6.5,771.50,0.8
2020-05-31,21:10:00,DRY,3.17,10.97,6.0,771.33,0.9
2020-05-31,21:15:00,DRY,3.80,10.65,6.5,771.50,0.9
2020-05-31,21:20:00,DRY,3.73,10.13,10.3,771.33,1.2
2020-05-31,21:25:00,DRY,3.75,9.85,12.5,771.00,0.8
2020-05-31,21:30:00,DRY,2.80,9.83,12.7,772.00,0.8
2020-05-31,21:35:00,DRY,4.05,9.90,12.5,772.00,1.4
2020-05-31,21:40:00,DRY,3.73,10.03,11.3,772.00,1.6
2020-05-31,21:45:00,DRY,4.15,10.20,9.5,772.00,1.8
2020-05-31,21:50:00,DRY,3.10,10.63,7.3,772.00,1.2
2020-05-31,21:55:00,DRY,3.10,10.45,8.0,772.00,1.4
2020-05-31,22:00:00,DRY,3.93,10.67,7.3,772.00,1.6
2020-05-31,22:05:00,DRY,2.75,10.70,7.5,772.00,0.6
2020-05-31,22:10:00,DRY,3.53,10.43,7.7,772.00,1.1
2020-05-31,22:15:00,DRY,2.70,10.25,8.5,772.00,1.5
2020-05-31,22:20:00,DRY,3.63,10.27,9.7,772.00,1.2
2020-05-31,22:25:00,DRY,3.70,10.25,9.5,772.00,0.8
2020-05-31,22:30:00,DRY,2.47,10.00,12.7,772.00,1.1
2020-05-31,22:35:00,DRY,2.20,9.80,12.5,772.00,1.3
2020-05-31,22:40:00,DRY,1.47,9.67,11.0,772.00,0.5
2020-05-31,22:45:00,DRY,2.10,9.60,10.5,772.00,0.6
2020-05-31,22:50:00,DRY,1.27,9.57,10.0,772.00,0.9
2020-05-31,22:55:00,DRY,1.10,9.25,10.0,772.00,0.2
2020-05-31,23:00:00,DRY,0.93,9.23,9.7,772.00,1.0
2020-05-31,23:05:00,DRY,1.20,9.30,8.0,772.00,1.4
2020-05-31,23:10:00,DRY,2.13,9.47,8.0,772.00,1.3
2020-05-31,23:15:00,DRY,1.85,9.55,8.0,772.00,1.6
2020-05-31,23:20:00,DRY,0.60,9.50,7.3,772.00,1.0
2020-05-31,23:25:00,DRY,1.75,9.45,8.5,772.00,0.7
2020-05-31,23:30:00,DRY,1.53,9.40,9.0,772.00,1.4
2020-05-31,23:35:00,DRY,2.15,9.40,9.0,772.00,1.4
2020-05-31,23:40:00,DRY,1.87,9.27,9.7,772.00,1.6
2020-05-31,23:45:00,DRY,2.05,9.45,9.0,772.00,1.5
2020-05-31,23:50:00,DRY,0.93,9.47,9.3,772.00,1.5
2020-05-31,23:55:00,DRY,2.25,9.55,9.5,772.00,0.5
2020-06-01,00:00:00,DRY,2.10,9.63,9.0,772.00,1.0
2020-06-01,00:05:00,DRY,2.20,9.65,9.0,772.00,1.0
2020-06-01,00:10:00,DRY,2.53,9.67,9.3,772.00,1.3
2020-06-01,00:15:00,DRY,1.85,9.60,9.5,772.00,1.4
2020-06-01,00:20:00,DRY,1.17,9.53,9.0,772.00,0.8
2020-06-01,00:25:00,DRY,1.70,9.65,8.0,772.00,0.2
2020-06-01,00:30:00,DRY,0.67,9.70,8.3,772.00,1.4
2020-06-01,00:35:00,DRY,1.15,9.75,9.0,772.00,0.7
2020-06-01,00:40:00,DRY,0.93,9.80,10.0,772.00,0.9
2020-06-01,00:45:00,DRY,1.65,9.95,9.0,772.00,0.9
2020-06-01,00:50:00,DRY,2.07,10.13,8.7,771.33,1.5
2020-06-01,00:55:00,DRY,2.15,10.25,7.0,771.00,0.8
2020-06-01,01:00:00,DRY,2.33,9.97,7.7,771.00,1.8
2020-06-01,01:05:00,DRY,2.15,9.70,7.0,771.00,2.0
2020-06-01,01:10:00,DRY,2.03,9.93,7.3,771.00,1.8
2020-06-01,01:15:00,DRY,1.95,10.05,7.0,771.00,1.8
2020-06-01,01:20:00,DRY,2.37,10.10,7.0,771.00,1.5
2020-06-01,01:25:00,DRY,1.30,10.05,7.0,771.00,2.3
2020-06-01,01:30:00,DRY,1.40,9.87,7.3,771.00,1.1
2020-06-01,01:35:00,DRY,1.75,9.80,7.5,771.00,1.0
2020-06-01,01:40:00,DRY,2.03,9.87,7.7,771.00,1.3
2020-06-01,01:45:00,DRY,1.60,9.75,8.0,771.00,1.9
2020-06-01,01:50:00,DRY,1.00,9.20,9.7,771.00,1.4
2020-06-01,01:55:00,DRY,0.85,8.85,9.0,771.00,2.0
2020-06-01,02:00:00,DRY,1.27,9.20,7.7,771.00,1.5
2020-06-01,02:05:00,DRY,0.75,9.55,7.0,771.00,0.8
2020-06-01,02:10:00,DRY,1.07,9.80,7.3,771.00,0.8
2020-06-01,02:15:00,DRY,1.65,9.85,9.0,771.00,0.7
2020-06-01,02:20:00,DRY,2.17,9.83,7.7,771.00,0.5
2020-06-01,02:25:00,DRY,1.40,9.95,7.0,771.00,2.1
2020-06-01,02:30:00,DRY,2.03,9.90,7.0,771.00,1.4
2020-06-01,02:35:00,DRY,2.15,9.90,7.0,771.00,1.3
2020-06-01,02:40:00,DRY,2.17,9.63,7.3,771.00,1.1
2020-06-01,02:45:00,DRY,2.05,9.35,8.5,771.00,1.0
2020-06-01,02:50:00,DRY,1.97,9.60,8.7,771.00,1.1
2020-06-01,02:55:00,DRY,1.25,9.85,8.0,771.00,0.8
2020-06-01,03:00:00,DRY,1.73,9.83,8.7,771.00,1.4
2020-06-01,03:05:00,DRY,1.50,9.80,7.5,771.00,2.4
2020-06-01,03:10:00,DRY,0.97,9.77,7.3,771.00,1.6
2020-06-01,03:15:00,DRY,1.05,9.75,6.5,771.00,0.2
2020-06-01,03:20:00,DRY,1.07,9.70,5.7,771.00,0.9
2020-06-01,03:25:00,DRY,0.60,9.90,5.0,771.00,2.0
2020-06-01,03:30:00,DRY,0.77,9.93,5.0,771.00,1.6
2020-06-01,03:35:00,DRY,0.65,9.90,5.0,771.00,1.4
2020-06-01,03:40:00,DRY,0.90,9.87,5.0,770.67,0.6
2020-06-01,03:45:00,DRY,0.40,9.90,5.5,770.50,1.6
2020-06-01,03:50:00,DRY,0.77,9.73,6.0,770.67,1.0
2020-06-01,03:55:00,DRY,0.90,9.70,6.5,770.50,2.5
2020-06-01,04:00:00,DRY,0.53,9.50,7.7,770.33,1.0
2020-06-01,04:05:00,DRY,0.70,9.45,8.5,770.50,1.5
2020-06-01,04:10:00,DRY,0.73,9.33,10.0,770.33,1.7
2020-06-01,04:15:00,DRY,0.55,9.25,10.0,770.50,0.4
2020-06-01,04:20:00,DRY,0.93,9.20,10.7,770.33,1.1
2020-06-01,04:25:00,DRY,1.20,9.30,11.0,770.00,1.1
2020-06-01,04:30:00,DRY,0.70,9.23,10.3,770.00,1.3
2020-06-01,04:35:00,DRY,1.30,9.05,10.0,771.00,1.6
2020-06-01,04:40:00,DRY,1.77,9.03,11.3,771.00,1.5
2020-06-01,04:45:00,DRY,1.60,9.05,12.0,770.50,1.8
2020-06-01,04:50:00,DRY,2.73,9.10,12.0,770.67,0.6
2020-06-01,04:55:00,DRY,2.35,9.15,11.5,771.00,1.1
2020-06-01,05:00:00,DRY,2.30,9.07,11.3,771.00,1.0
2020-06-01,05:05:00,DRY,1.40,9.10,12.0,771.00,1.4
2020-06-01,05:10:00,DRY,1.93,8.67,12.0,771.00,0.9
2020-06-01,05:15:00,DRY,1.30,8.70,12.0,771.00,1.1
2020-06-01,05:20:00,DRY,1.73,8.87,11.7,771.00,1.8
2020-06-01,05:25:00,DRY,2.40,8.80,12.0,771.00,1.9
2020-06-01,05:30:00,DRY,3.40,8.97,12.0,771.00,1.1
2020-06-01,05:35:00,DRY,3.10,9.35,11.5,771.00,1.1
2020-06-01,05:40:00,DRY,3.03,9.63,11.0,771.00,0.9
2020-06-01,05:45:00,DRY,2.25,9.65,10.0,771.00,0.9
2020-06-01,05:50:00,DRY,2.17,9.57,9.7,771.00,2.0
2020-06-01,05:55:00,DRY,1.95,9.55,9.0,771.00,2.1
2020-06-01,06:00:00,DRY,2.20,9.27,10.3,770.67,2.1
2020-06-01,06:05:00,DRY,0.90,8.50,12.0,771.00,4.0
2020-06-01,06:10:00,DRY,1.20,8.33,10.3,770.33,5.9
2020-06-01,06:15:00,DRY,1.70,8.55,10.0,771.00,10.8
2020-06-01,06:20:00,DRY,1.83,8.73,10.0,771.00,21.7
2020-06-01,06:25:00,DRY,2.00,8.85,9.5,771.00,23.1
2020-06-01,06:30:00,DRY,2.57,9.60,9.7,771.00,35.6
2020-06-01,06:35:00,DRY,2.45,9.70,9.5,771.00,75.7
2020-06-01,06:40:00,DRY,2.57,9.53,10.0,771.00,99.7
2020-06-01,06:45:00,DRY,2.90,9.85,10.5,771.00,119.7
2020-06-01,06:50:00,DRY,2.77,9.60,9.0,771.00,138.1
2020-06-01,06:55:00,DRY,2.45,9.50,11.5,771.00,157.6
2020-06-01,07:00:00,DRY,2.33,9.57,9.0,771.00,179.0
2020-06-01,07:05:00,DRY,2.75,9.70,9.0,771.00,200.0
2020-06-01,07:10:00,DRY,2.10,9.57,9.0,771.00,219.7
2020-06-01,07:15:00,DRY,2.30,9.60,9.5,771.00,241.7
2020-06-01,07:20:00,DRY,2.10,9.77,11.3,771.00,263.9
2020-06-01,07:25:00,DRY,2.25,9.85,9.0,771.00,286.8
2020-06-01,07:30:00,DRY,1.07,10.00,9.3,771.00,308.4
2020-06-01,07:35:00,DRY,2.55,9.95,8.5,771.00,329.8
2020-06-01,07:40:00,DRY,2.37,9.73,8.7,771.00,352.9
2020-06-01,07:45:00,DRY,1.45,9.75,9.0,771.00,373.7
2020-06-01,07:50:00,DRY,2.03,9.97,12.7,771.00,396.8
2020-06-01,07:55:00,DRY,1.75,10.25,10.5,771.00,419.3
2020-06-01,08:00:00,DRY,2.63,10.13,13.0,771.00,440.4
2020-06-01,08:05:00,DRY,1.65,10.30,13.0,771.00,463.1
2020-06-01,08:10:00,DRY,2.07,10.47,14.3,771.00,485.4
2020-06-01,08:15:00,DRY,2.40,10.60,19.0,771.00,505.4
2020-06-01,08:20:00,DRY,2.23,10.77,14.7,771.00,528.3
2020-06-01,08:25:00,DRY,2.65,10.80,16.0,771.00,548.5
2020-06-01,08:30:00,DRY,1.07,10.93,14.3,771.00,570.1
2020-06-01,08:35:00,DRY,2.35,11.30,13.5,771.00,590.3
2020-06-01,08:40:00,DRY,1.97,11.40,14.7,771.00,611.9
2020-06-01,08:45:00,DRY,2.00,11.50,14.0,771.00,632.5
2020-06-01,08:50:00,DRY,1.93,11.27,14.7,771.00,653.9
2020-06-01,08:55:00,DRY,1.15,11.50,14.0,771.00,673.9
2020-06-01,09:00:00,DRY,1.57,11.83,14.0,771.00,692.9
2020-06-01,09:05:00,DRY,2.80,12.00,14.0,771.00,712.0
2020-06-01,09:10:00,DRY,2.20,11.83,16.3,771.00,732.5
2020-06-01,09:15:00,DRY,1.60,11.85,14.5,771.00,751.1
2020-06-01,09:20:00,DRY,2.33,11.77,15.7,771.00,770.6
2020-06-01,09:25:00,DRY,2.70,11.60,16.0,771.00,788.3
2020-06-01,09:30:00,DRY,2.27,11.87,15.3,771.00,805.0
2020-06-01,09:35:00,DRY,2.40,12.15,14.0,771.00,822.4
2020-06-01,09:40:00,DRY,1.63,12.30,15.0,771.00,839.3
2020-06-01,09:45:00,DRY,2.00,12.80,17.0,771.00,856.2
2020-06-01,09:50:00,DRY,2.20,12.77,17.0,771.00,874.1
2020-06-01,09:55:00,DRY,2.20,12.20,16.5,771.00,889.7
2020-06-01,10:00:00,DRY,0.60,13.00,18.3,771.00,905.8
2020-06-01,10:05:00,DRY,1.20,12.75,20.5,771.00,920.6
2020-06-01,10:10:00,DRY,1.63,12.77,21.7,771.00,936.3
2020-06-01,10:15:00,DRY,2.05,13.20,25.0,771.00,952.7
2020-06-01,10:20:00,DRY,1.57,12.87,27.7,771.00,966.6
2020-06-01,10:25:00,DRY,2.55,13.00,27.0,771.00,980.3
2020-06-01,10:30:00,DRY,1.43,13.47,29.3,771.00,992.5
2020-06-01,10:35:00,DRY,1.45,14.00,31.0,771.00,1008.2
2020-06-01,10:40:00,DRY,1.07,13.70,34.3,771.00,1017.8
2020-06-01,10:45:00,DRY,1.05,14.30,46.0,771.00,1032.3
2020-06-01,10:50:00,DRY,1.77,13.67,57.0,771.00,1043.0
2020-06-01,10:55:00,DRY,1.75,13.00,54.0,771.00,1054.3
2020-06-01,11:00:00,DRY,1.33,12.97,65.3,771.33,1061.3
2020-06-01,11:05:00,DRY,1.80,12.15,76.0,771.50,1074.3
2020-06-01,11:10:00,DRY,2.57,12.67,63.0,771.00,1086.5
2020-06-01,11:15:00,DRY,2.25,13.15,68.5,771.50,1094.9
2020-06-01,11:20:00,DRY,1.87,13.00,45.0,771.67,1105.8
2020-06-01,11:25:00,DRY,1.65,13.05,36.5,771.00,1119.1
2020-06-01,11:30:00,DRY,1.07,13.27,34.0,771.00,1128.0
2020-06-01,11:35:00,DRY,2.20,13.30,28.5,771.00,1136.1
2020-06-01,11:40:00,DRY,2.00,13.67,28.7,771.33,1145.9
2020-06-01,11:45:00,DRY,0.90,13.95,33.0,771.00,1153.5
2020-06-01,11:50:00,DRY,2.20,14.13,47.7,771.33,1157.6
2020-06-01,11:55:00,DRY,1.50,14.15,48.5,771.50,1163.8
2020-06-01,12:00:00,DRY,1.50,13.47,38.3,772.00,1167.9
2020-06-01,12:05:00,DRY,2.15,13.80,36.5,771.50,1172.4
2020-06-01,12:10:00,DRY,1.57,13.90,35.7,771.67,1179.2
2020-06-01,12:15:00,DRY,2.00,13.35,35.0,771.00,1184.1
2020-06-01,12:20:00,DRY,1.10,13.77,34.0,771.67,1185.7
2020-06-01,12:25:00,DRY,4.10,14.35,33.5,771.50,1190.7
2020-06-01,12:30:00,DRY,2.23,13.60,38.7,771.67,1194.0
2020-06-01,12:35:00,DRY,2.60,13.30,39.5,772.00,1194.8
2020-06-01,12:40:00,DRY,3.17,13.20,40.0,771.67,1196.6
2020-06-01,12:45:00,DRY,2.15,13.80,38.0,771.00,1198.8
2020-06-01,12:50:00,DRY,1.87,14.53,36.3,771.67,1200.6
2020-06-01,12:55:00,DRY,2.45,14.40,35.0,772.00,1201.2
2020-06-01,13:00:00,DRY,1.90,13.93,36.3,771.67,1203.5
2020-06-01,13:05:00,DRY,3.30,14.00,34.0,772.00,1204.7
2020-06-01,13:10:00,DRY,2.10,14.20,35.0,771.67,1204.8
2020-06-01,13:15:00,DRY,2.65,14.90,34.5,771.00,1204.2
2020-06-01,13:20:00,DRY,2.87,14.67,33.7,771.33,1203.5
2020-06-01,13:25:00,DRY,3.25,14.10,34.0,771.50,1203.7
2020-06-01,13:30:00,DRY,2.80,13.60,38.0,771.00,1198.8
2020-06-01,13:35:00,DRY,2.50,13.70,38.0,771.00,1200.4
2020-06-01,13:40:00,DRY,2.83,13.57,36.7,771.00,1197.6
2020-06-01,13:45:00,DRY,4.45,14.05,33.0,771.00,1194.7
2020-06-01,13:50:00,DRY,2.47,13.77,33.3,771.00,1193.2
2020-06-01,13:55:00,DRY,3.30,13.75,34.0,771.50,1188.3
2020-06-01,14:00:00,DRY,2.40,13.40,34.7,771.33,1183.8
2020-06-01,14:05:00,DRY,3.05,13.75,35.5,771.50,1181.3
2020-06-01,14:10:00,DRY,2.80,13.30,32.3,771.33,1176.9
2020-06-01,14:15:00,DRY,2.50,13.45,33.5,771.50,1172.2
2020-06-01,14:20:00,DRY,2.40,13.43,32.7,771.33,1166.9
2020-06-01,14:25:00,DRY,2.15,13.60,33.0,771.00,1160.1
2020-06-01,14:30:00,DRY,2.10,13.17,35.3,771.33,1152.6
2020-06-01,14:35:00,DRY,1.60,13.65,33.0,771.00,1146.8
2020-06-01,14:40:00,DRY,3.27,13.57,31.3,771.00,1139.5
2020-06-01,14:45:00,DRY,2.70,14.25,30.5,771.00,1129.8
2020-06-01,14:50:00,DRY,2.40,13.97,31.0,771.00,1120.5
2020-06-01,14:55:00,DRY,3.50,13.65,33.0,771.00,1112.3
2020-06-01,15:00:00,DRY,2.67,13.63,33.7,771.00,1102.4
2020-06-01,15:05:00,DRY,1.75,13.95,35.0,771.00,1092.4
2020-06-01,15:10:00,DRY,4.20,13.87,31.3,771.00,1081.3
2020-06-01,15:15:00,DRY,2.80,14.15,31.0,771.00,1069.5
2020-06-01,15:20:00,DRY,2.33,14.23,33.0,771.00,1057.1
2020-06-01,15:25:00,DRY,2.75,13.15,37.0,771.00,1044.8
2020-06-01,15:30:00,DRY,2.63,13.47,39.0,771.00,1031.7
2020-06-01,15:35:00,DRY,3.95,13.40,38.5,771.00,1017.3
2020-06-01,15:40:00,DRY,3.30,13.70,38.3,771.00,1003.3
2020-06-01,15:45:00,DRY,2.95,13.80,38.5,771.00,989.8
2020-06-01,15:50:00,DRY,4.23,13.63,38.7,771.00,976.2
2020-06-01,15:55:00,DRY,3.60,13.55,40.5,771.00,961.4
2020-06-01,16:00:00,DRY,5.07,13.73,41.0,771.00,946.4
2020-06-01,16:05:00,DRY,3.95,13.35,40.5,771.00,931.0
2020-06-01,16:10:00,DRY,3.03,13.57,41.3,771.00,915.3
2020-06-01,16:15:00,DRY,2.75,13.25,41.5,771.00,898.4
2020-06-01,16:20:00,DRY,3.70,13.30,42.0,771.00,881.7
2020-06-01,16:25:00,DRY,3.80,13.10,41.5,771.00,863.9
2020-06-01,16:30:00,DRY,2.53,13.33,39.3,771.00,848.1
2020-06-01,16:35:00,DRY,2.75,13.55,36.5,771.00,831.7
2020-06-01,16:40:00,DRY,3.37,13.53,36.0,771.00,813.4
2020-06-01,16:45:00,DRY,2.80,13.40,36.0,771.00,794.4
2020-06-01,16:50:00,DRY,3.60,13.40,36.7,771.00,776.6
2020-06-01,16:55:00,DRY,2.35,13.55,37.5,771.00,756.0
2020-06-01,17:00:00,DRY,3.33,12.83,39.3,771.00,738.3
2020-06-01,17:05:00,DRY,3.00,12.50,40.5,771.00,717.8
2020-06-01,17:10:00,DRY,2.53,13.10,38.3,771.00,697.0
2020-06-01,17:15:00,DRY,3.95,13.30,38.5,771.00,678.7
2020-06-01,17:20:00,DRY,3.90,13.10,38.7,771.00,657.8
2020-06-01,17:25:00,DRY,3.05,12.55,37.5,771.00,637.6
2020-06-01,17:30:00,DRY,4.10,12.77,36.3,771.00,617.0
2020-06-01,17:35:00,DRY,1.65,12.60,37.0,771.00,596.5
2020-06-01,17:40:00,DRY,2.87,12.90,35.3,771.00,575.2
2020-06-01,17:45:00,DRY,2.65,12.65,38.0,771.00,554.8
2020-06-01,17:50:00,DRY,2.70,12.83,37.0,771.00,533.7
2020-06-01,17:55:00,DRY,3.20,12.60,38.0,771.00,511.9
2020-06-01,18:00:00,DRY,3.67,12.30,39.7,771.00,490.6
2020-06-01,18:05:00,DRY,4.65,12.80,38.5,771.00,466.7
2020-06-01,18:10:00,DRY,3.23,12.43,39.7,771.00,446.2
2020-06-01,18:15:00,DRY,2.10,12.45,40.5,771.00,423.5
2020-06-01,18:20:00,DRY,3.20,12.30,43.3,771.00,401.3
2020-06-01,18:25:00,DRY,4.55,12.15,43.5,771.00,378.9
2020-06-01,18:30:00,DRY,3.67,11.80,45.7,771.00,356.5
2020-06-01,18:35:00,DRY,4.35,11.75,44.5,771.00,335.1
2020-06-01,18:40:00,DRY,3.43,11.70,44.0,771.00,312.9
2020-06-01,18:45:00,DRY,2.90,11.80,44.5,771.00,291.0
2020-06-01,18:50:00,DRY,4.17,11.43,45.0,771.00,269.2
2020-06-01,18:55:00,DRY,2.30,11.75,44.5,771.00,248.4
2020-06-01,19:00:00,DRY,4.60,11.50,44.0,771.00,226.8
2020-06-01,19:05:00,DRY,3.10,11.40,44.0,771.00,206.1
2020-06-01,19:10:00,DRY,3.63,11.27,46.0,771.00,186.1